Time,TemperatureF,DewpointF,PressureIn,WindDirection,WindDirectionDegrees,WindSpeedMPH,WindSpeedGustMPH,Humidity,HourlyPrecipIn,Conditions,Clouds,dailyrainin,SoftwareType,DateUTC
2013-02-15 00:01:00,46.0,43.0,30.21,SE,134,0.0,0.0,88,0.00,,,0.00,,2013-02-15 08:01:00,
2013-02-15 00:11:00,46.0,43.0,30.21,SE,134,0.0,0.0,88,0.00,,,0.00,,2013-02-15 08:11:00,
2013-02-15 00:21:00,46.0,42.0,30.21,East,85,0.0,1.0,85,0.00,,,0.00,,2013-02-15 08:21:00,
2013-02-15 00:31:00,45.0,41.0,30.21,East,85,0.0,1.0,87,0.00,,,0.00,,2013-02-15 08:31:00,
2013-02-15 00:41:00,45.0,41.0,30.21,East,85,0.0,1.0,87,0.00,,,0.00,,2013-02-15 08:41:00,
2013-02-15 00:52:00,45.0,41.0,30.22,East,84,0.0,0.0,86,0.00,,,0.00,,2013-02-15 08:52:00,
2013-02-15 01:01:00,46.0,42.0,30.22,East,84,0.0,1.0,87,0.00,,,0.00,,2013-02-15 09:01:00,
2013-02-15 01:11:00,46.0,42.0,30.22,East,84,0.0,1.0,87,0.00,,,0.00,,2013-02-15 09:11:00,
2013-02-15 01:21:00,46.0,42.0,30.22,East,84,0.0,0.0,86,0.00,,,0.00,,2013-02-15 09:21:00,
2013-02-15 01:31:00,46.0,42.0,30.22,NW,325,0.0,0.0,87,0.00,,,0.00,,2013-02-15 09:31:00,
2013-02-15 01:41:00,46.0,42.0,30.22,NW,325,0.0,0.0,87,0.00,,,0.00,,2013-02-15 09:41:00,
2013-02-15 01:52:00,45.0,42.0,30.22,NW,324,0.0,0.0,88,0.00,,,0.00,,2013-02-15 09:52:00,
2013-02-15 02:01:00,44.0,41.0,30.22,NW,325,0.0,0.0,88,0.00,,,0.00,,2013-02-15 10:01:00,
2013-02-15 02:11:00,44.0,41.0,30.22,NW,325,0.0,0.0,88,0.00,,,0.00,,2013-02-15 10:11:00,
2013-02-15 02:21:00,44.0,41.0,30.22,NW,325,0.0,0.0,88,0.00,,,0.00,,2013-02-15 10:21:00,
2013-02-15 02:31:00,44.0,41.0,30.22,NW,326,0.0,0.0,90,0.00,,,0.00,,2013-02-15 10:31:00,
2013-02-15 02:41:00,44.0,41.0,30.22,NW,326,0.0,0.0,90,0.00,,,0.00,,2013-02-15 10:41:00,
2013-02-15 02:52:00,44.0,41.0,30.23,NW,326,0.0,0.0,90,0.00,,,0.00,,2013-02-15 10:52:00,
2013-02-15 03:01:00,43.0,40.0,30.23,NW,326,0.0,1.0,90,0.00,,,0.00,,2013-02-15 11:01:00,
2013-02-15 03:11:00,43.0,40.0,30.23,NW,326,0.0,1.0,90,0.00,,,0.00,,2013-02-15 11:11:00,
2013-02-15 03:22:00,43.0,40.0,30.22,NW,326,0.0,0.0,90,0.00,,,0.00,,2013-02-15 11:22:00,
2013-02-15 03:31:00,42.0,39.0,30.22,NW,326,0.0,0.0,90,0.00,,,0.00,,2013-02-15 11:31:00,
2013-02-15 03:42:00,42.0,39.0,30.22,NW,326,0.0,0.0,90,0.00,,,0.00,,2013-02-15 11:42:00,
2013-02-15 03:52:00,42.0,40.0,30.22,NW,326,0.0,0.0,91,0.00,,,0.00,,2013-02-15 11:52:00,
2013-02-15 04:01:00,41.0,39.0,30.22,NW,326,0.0,0.0,92,0.00,,,0.00,,2013-02-15 12:01:00,
2013-02-15 04:11:00,41.0,39.0,30.22,NW,326,0.0,0.0,92,0.00,,,0.00,,2013-02-15 12:11:00,
2013-02-15 04:21:00,41.0,39.0,30.23,NW,326,0.0,0.0,93,0.00,,,0.00,,2013-02-15 12:21:00,
2013-02-15 04:31:00,41.0,39.0,30.23,NW,326,0.0,0.0,93,0.00,,,0.00,,2013-02-15 12:31:00,
2013-02-15 04:42:00,41.0,39.0,30.23,NW,326,0.0,0.0,93,0.00,,,0.00,,2013-02-15 12:42:00,
2013-02-15 04:52:00,41.0,39.0,30.23,NW,326,0.0,0.0,93,0.00,,,0.00,,2013-02-15 12:52:00,
2013-02-15 05:02:00,41.0,39.0,30.23,NNW,330,0.0,0.0,92,0.00,,,0.00,,2013-02-15 13:02:00,
2013-02-15 05:11:00,41.0,39.0,30.23,NNW,330,0.0,0.0,92,0.00,,,0.00,,2013-02-15 13:11:00,
2013-02-15 05:21:00,41.0,39.0,30.23,NNW,330,0.0,0.0,93,0.00,,,0.00,,2013-02-15 13:21:00,
2013-02-15 05:31:00,40.0,38.0,30.23,NNW,331,0.0,0.0,92,0.00,,,0.00,,2013-02-15 13:31:00,
2013-02-15 05:41:00,40.0,38.0,30.23,NNW,331,0.0,0.0,92,0.00,,,0.00,,2013-02-15 13:41:00,
2013-02-15 05:52:00,40.0,38.0,30.24,NNW,331,0.0,0.0,93,0.00,,,0.00,,2013-02-15 13:52:00,
2013-02-15 06:01:00,40.0,38.0,30.24,NNW,332,0.0,0.0,93,0.00,,,0.00,,2013-02-15 14:01:00,
2013-02-15 06:11:00,40.0,38.0,30.24,NNW,332,0.0,0.0,93,0.00,,,0.00,,2013-02-15 14:11:00,
2013-02-15 06:21:00,40.0,38.0,30.24,NNW,331,0.0,0.0,93,0.00,,,0.00,,2013-02-15 14:21:00,
2013-02-15 06:31:00,40.0,38.0,30.24,NNW,332,0.0,0.0,93,0.00,,,0.00,,2013-02-15 14:31:00,
2013-02-15 06:41:00,40.0,38.0,30.24,NNW,332,0.0,0.0,93,0.00,,,0.00,,2013-02-15 14:41:00,
2013-02-15 06:52:00,40.0,38.0,30.24,NNW,331,0.0,0.0,94,0.00,,,0.00,,2013-02-15 14:52:00,
2013-02-15 07:01:00,39.0,37.0,30.24,NNW,332,0.0,0.0,94,0.00,,,0.00,,2013-02-15 15:01:00,
2013-02-15 07:11:00,39.0,37.0,30.24,NNW,332,0.0,0.0,94,0.00,,,0.00,,2013-02-15 15:11:00,
2013-02-15 07:21:00,39.0,37.0,30.25,NNW,332,0.0,0.0,94,0.00,,,0.00,,2013-02-15 15:21:00,
2013-02-15 07:32:00,40.0,39.0,30.25,NNW,333,0.0,0.0,95,0.00,,,0.00,,2013-02-15 15:32:00,
2013-02-15 07:41:00,41.0,40.0,30.26,NNW,333,0.0,0.0,95,0.00,,,0.00,,2013-02-15 15:41:00,
2013-02-15 07:52:00,41.0,40.0,30.26,NNW,333,0.0,0.0,95,0.00,,,0.00,,2013-02-15 15:52:00,
2013-02-15 08:01:00,42.0,41.0,30.26,SE,131,0.0,1.0,95,0.00,,,0.00,,2013-02-15 16:01:00,
2013-02-15 08:11:00,42.0,41.0,30.26,SE,131,0.0,1.0,95,0.00,,,0.00,,2013-02-15 16:11:00,
2013-02-15 08:21:00,44.0,42.0,30.27,SE,139,0.0,1.0,93,0.00,,,0.00,,2013-02-15 16:21:00,
2013-02-15 08:31:00,47.0,43.0,30.27,SE,138,0.0,0.0,87,0.00,,,0.00,,2013-02-15 16:31:00,
2013-02-15 08:42:00,47.0,43.0,30.27,SE,138,0.0,0.0,87,0.00,,,0.00,,2013-02-15 16:42:00,
2013-02-15 08:52:00,50.0,45.0,30.28,SE,135,0.0,1.0,82,0.00,,,0.00,,2013-02-15 16:52:00,
2013-02-15 09:01:00,53.0,47.0,30.28,SE,140,1.0,2.0,80,0.00,,,0.00,,2013-02-15 17:01:00,
2013-02-15 09:11:00,54.0,47.0,30.28,SE,134,0.0,2.0,77,0.00,,,0.00,,2013-02-15 17:11:00,
2013-02-15 09:21:00,54.0,47.0,30.28,SE,134,0.0,2.0,77,0.00,,,0.00,,2013-02-15 17:21:00,
2013-02-15 09:31:00,56.0,47.0,30.28,SW,222,0.0,1.0,71,0.00,,,0.00,,2013-02-15 17:31:00,
2013-02-15 09:41:00,56.0,47.0,30.28,SW,222,0.0,1.0,71,0.00,,,0.00,,2013-02-15 17:41:00,
2013-02-15 09:52:00,56.0,47.0,30.28,SW,222,0.0,1.0,71,0.00,,,0.00,,2013-02-15 17:52:00,
2013-02-15 10:01:00,58.0,47.0,30.28,SE,129,0.0,2.0,67,0.00,,,0.00,,2013-02-15 18:01:00,
2013-02-15 10:11:00,58.0,47.0,30.28,SE,129,0.0,2.0,67,0.00,,,0.00,,2013-02-15 18:11:00,
2013-02-15 10:21:00,59.0,46.0,30.28,West,259,0.0,2.0,61,0.00,,,0.00,,2013-02-15 18:21:00,
2013-02-15 10:31:00,59.0,45.0,30.28,WSW,247,1.0,2.0,60,0.00,,,0.00,,2013-02-15 18:31:00,
2013-02-15 10:41:00,59.0,45.0,30.28,WSW,247,1.0,2.0,60,0.00,,,0.00,,2013-02-15 18:41:00,
2013-02-15 10:52:00,60.0,47.0,30.29,SSE,154,0.0,3.0,61,0.00,,,0.00,,2013-02-15 18:52:00,
2013-02-15 11:01:00,61.0,46.0,30.29,East,91,0.0,3.0,57,0.00,,,0.00,,2013-02-15 19:01:00,
2013-02-15 11:11:00,61.0,46.0,30.29,East,91,0.0,3.0,57,0.00,,,0.00,,2013-02-15 19:11:00,
2013-02-15 11:21:00,62.0,46.0,30.28,SSW,200,0.0,3.0,56,0.00,,,0.00,,2013-02-15 19:21:00,
2013-02-15 11:31:00,65.0,47.0,30.28,SE,139,1.0,4.0,53,0.00,,,0.00,,2013-02-15 19:31:00,
2013-02-15 11:41:00,65.0,47.0,30.28,SE,139,1.0,4.0,53,0.00,,,0.00,,2013-02-15 19:41:00,
2013-02-15 11:52:00,64.0,47.0,30.28,North,353,0.0,2.0,54,0.00,,,0.00,,2013-02-15 19:52:00,
2013-02-15 12:01:00,66.0,47.0,30.27,ESE,115,0.0,3.0,50,0.00,,,0.00,,2013-02-15 20:01:00,
2013-02-15 12:11:00,66.0,47.0,30.27,ESE,115,0.0,3.0,50,0.00,,,0.00,,2013-02-15 20:11:00,
2013-02-15 12:21:00,65.0,46.0,30.26,NE,44,0.0,2.0,50,0.00,,,0.00,,2013-02-15 20:21:00,
2013-02-15 12:32:00,67.0,47.0,30.26,SW,214,2.0,3.0,48,0.00,,,0.00,,2013-02-15 20:32:00,
2013-02-15 12:42:00,67.0,47.0,30.26,SW,214,2.0,3.0,48,0.00,,,0.00,,2013-02-15 20:42:00,
2013-02-15 12:52:00,68.0,47.0,30.25,WSW,245,0.0,4.0,47,0.00,,,0.00,,2013-02-15 20:52:00,
2013-02-15 13:01:00,67.0,46.0,30.25,WSW,252,1.0,4.0,46,0.00,,,0.00,,2013-02-15 21:01:00,
2013-02-15 13:11:00,67.0,46.0,30.25,WSW,252,1.0,4.0,46,0.00,,,0.00,,2013-02-15 21:11:00,
2013-02-15 13:21:00,68.0,46.0,30.24,NNE,20,1.0,5.0,46,0.00,,,0.00,,2013-02-15 21:21:00,
2013-02-15 13:31:00,68.0,46.0,30.23,ENE,77,0.0,4.0,45,0.00,,,0.00,,2013-02-15 21:31:00,
2013-02-15 13:42:00,68.0,46.0,30.23,ENE,77,0.0,4.0,45,0.00,,,0.00,,2013-02-15 21:42:00,
2013-02-15 13:52:00,68.0,45.0,30.23,East,84,1.0,3.0,44,0.00,,,0.00,,2013-02-15 21:52:00,
2013-02-15 14:01:00,70.0,47.0,30.22,WSW,243,0.0,2.0,44,0.00,,,0.00,,2013-02-15 22:01:00,
2013-02-15 14:11:00,69.0,46.0,30.21,SW,222,1.0,3.0,43,0.00,,,0.00,,2013-02-15 22:11:00,
2013-02-15 14:21:00,69.0,46.0,30.21,SW,222,1.0,3.0,43,0.00,,,0.00,,2013-02-15 22:21:00,
2013-02-15 14:31:00,70.0,46.0,30.21,SE,124,0.0,3.0,42,0.00,,,0.00,,2013-02-15 22:31:00,
2013-02-15 14:41:00,70.0,46.0,30.21,SE,124,0.0,3.0,42,0.00,,,0.00,,2013-02-15 22:41:00,
2013-02-15 14:52:00,71.0,47.0,30.21,South,174,2.0,4.0,42,0.00,,,0.00,,2013-02-15 22:52:00,
2013-02-15 15:01:00,72.0,47.0,30.21,SSW,211,0.0,3.0,41,0.00,,,0.00,,2013-02-15 23:01:00,
2013-02-15 15:11:00,72.0,47.0,30.21,SSW,211,0.0,3.0,41,0.00,,,0.00,,2013-02-15 23:11:00,
2013-02-15 15:21:00,72.0,47.0,30.21,SSW,211,0.0,3.0,41,0.00,,,0.00,,2013-02-15 23:21:00,
2013-02-15 15:31:00,72.0,44.0,30.21,East,94,0.0,2.0,37,0.00,,,0.00,,2013-02-15 23:31:00,
2013-02-15 15:41:00,72.0,44.0,30.21,East,94,0.0,2.0,37,0.00,,,0.00,,2013-02-15 23:41:00,
2013-02-15 15:52:00,72.0,46.0,30.20,South,184,1.0,3.0,40,0.00,,,0.00,,2013-02-15 23:52:00,
2013-02-15 16:01:00,71.0,44.0,30.20,ESE,115,0.0,3.0,38,0.00,,,0.00,,2013-02-16 00:01:00,
2013-02-15 16:11:00,71.0,44.0,30.20,ESE,115,0.0,3.0,38,0.00,,,0.00,,2013-02-16 00:11:00,
2013-02-15 16:21:00,71.0,44.0,30.20,WSW,239,0.0,3.0,38,0.00,,,0.00,,2013-02-16 00:21:00,
2013-02-15 16:31:00,71.0,44.0,30.19,SE,127,0.0,2.0,38,0.00,,,0.00,,2013-02-16 00:31:00,
2013-02-15 16:41:00,71.0,44.0,30.19,SE,127,0.0,2.0,38,0.00,,,0.00,,2013-02-16 00:41:00,
2013-02-15 16:52:00,71.0,44.0,30.19,SSE,165,0.0,2.0,38,0.00,,,0.00,,2013-02-16 00:52:00,
2013-02-15 17:01:00,70.0,44.0,30.19,ESE,117,0.0,2.0,39,0.00,,,0.00,,2013-02-16 01:01:00,
2013-02-15 17:11:00,70.0,44.0,30.19,ESE,117,0.0,2.0,39,0.00,,,0.00,,2013-02-16 01:11:00,
2013-02-15 17:21:00,70.0,44.0,30.19,ESE,117,0.0,2.0,39,0.00,,,0.00,,2013-02-16 01:21:00,
2013-02-15 17:31:00,70.0,45.0,30.19,SE,127,0.0,1.0,41,0.00,,,0.00,,2013-02-16 01:31:00,
2013-02-15 17:41:00,70.0,45.0,30.19,SE,127,0.0,1.0,41,0.00,,,0.00,,2013-02-16 01:41:00,
2013-02-15 17:52:00,67.0,46.0,30.19,West,280,0.0,1.0,47,0.00,,,0.00,,2013-02-16 01:52:00,
2013-02-15 18:01:00,65.0,47.0,30.19,WSW,248,0.0,2.0,53,0.00,,,0.00,,2013-02-16 02:01:00,
2013-02-15 18:11:00,65.0,47.0,30.19,WSW,248,0.0,2.0,53,0.00,,,0.00,,2013-02-16 02:11:00,
2013-02-15 18:21:00,65.0,47.0,30.19,WSW,248,0.0,2.0,53,0.00,,,0.00,,2013-02-16 02:21:00,
2013-02-15 18:31:00,61.0,47.0,30.21,WSW,248,0.0,0.0,60,0.00,,,0.00,,2013-02-16 02:31:00,
2013-02-15 18:42:00,61.0,47.0,30.21,WSW,248,0.0,0.0,60,0.00,,,0.00,,2013-02-16 02:42:00,
2013-02-15 18:52:00,60.0,47.0,30.21,SSE,152,0.0,0.0,62,0.00,,,0.00,,2013-02-16 02:52:00,
2013-02-15 19:01:00,58.0,46.0,30.21,SE,135,0.0,2.0,65,0.00,,,0.00,,2013-02-16 03:01:00,
2013-02-15 19:11:00,58.0,46.0,30.21,SE,135,0.0,2.0,65,0.00,,,0.00,,2013-02-16 03:11:00,
2013-02-15 19:21:00,57.0,46.0,30.21,SE,131,0.0,0.0,66,0.00,,,0.00,,2013-02-16 03:21:00,
2013-02-15 19:31:00,57.0,47.0,30.21,SE,131,0.0,0.0,68,0.00,,,0.00,,2013-02-16 03:31:00,
2013-02-15 19:41:00,57.0,47.0,30.21,SE,131,0.0,0.0,68,0.00,,,0.00,,2013-02-16 03:41:00,
2013-02-15 19:52:00,55.0,45.0,30.21,SE,131,0.0,0.0,70,0.00,,,0.00,,2013-02-16 03:52:00,
2013-02-15 20:01:00,55.0,46.0,30.21,SE,131,0.0,0.0,72,0.00,,,0.00,,2013-02-16 04:01:00,
2013-02-15 20:11:00,55.0,46.0,30.21,SE,131,0.0,1.0,72,0.00,,,0.00,,2013-02-16 04:11:00,
2013-02-15 20:21:00,55.0,46.0,30.21,SE,131,0.0,1.0,72,0.00,,,0.00,,2013-02-16 04:21:00,
2013-02-15 20:31:00,53.0,45.0,30.22,SE,131,0.0,0.0,75,0.00,,,0.00,,2013-02-16 04:31:00,
2013-02-15 20:41:00,53.0,45.0,30.22,SE,131,0.0,0.0,75,0.00,,,0.00,,2013-02-16 04:41:00,
2013-02-15 20:52:00,52.0,45.0,30.22,SE,131,0.0,0.0,77,0.00,,,0.00,,2013-02-16 04:52:00,
2013-02-15 21:01:00,52.0,45.0,30.22,SE,131,0.0,0.0,77,0.00,,,0.00,,2013-02-16 05:01:00,
2013-02-15 21:11:00,52.0,45.0,30.22,SE,131,0.0,0.0,77,0.00,,,0.00,,2013-02-16 05:11:00,
2013-02-15 21:21:00,51.0,45.0,30.23,SE,131,0.0,0.0,79,0.00,,,0.00,,2013-02-16 05:21:00,
2013-02-15 21:31:00,51.0,45.0,30.23,SE,131,0.0,0.0,80,0.00,,,0.00,,2013-02-16 05:31:00,
2013-02-15 21:42:00,51.0,45.0,30.23,SE,131,0.0,0.0,80,0.00,,,0.00,,2013-02-16 05:42:00,
2013-02-15 21:52:00,51.0,45.0,30.23,SE,131,0.0,0.0,80,0.00,,,0.00,,2013-02-16 05:52:00,
2013-02-15 22:01:00,50.0,44.0,30.23,SE,131,0.0,0.0,80,0.00,,,0.00,,2013-02-16 06:01:00,
2013-02-15 22:11:00,50.0,44.0,30.23,SE,131,0.0,0.0,80,0.00,,,0.00,,2013-02-16 06:11:00,
2013-02-15 22:21:00,49.0,44.0,30.23,SE,131,0.0,0.0,83,0.00,,,0.00,,2013-02-16 06:21:00,
2013-02-15 22:32:00,49.0,44.0,30.23,SE,131,0.0,0.0,84,0.00,,,0.00,,2013-02-16 06:32:00,
2013-02-15 22:41:00,49.0,44.0,30.23,SE,131,0.0,0.0,84,0.00,,,0.00,,2013-02-16 06:41:00,
2013-02-15 22:52:00,48.0,44.0,30.23,SE,131,0.0,0.0,85,0.00,,,0.00,,2013-02-16 06:52:00,
2013-02-15 23:01:00,48.0,44.0,30.23,SE,131,0.0,1.0,86,0.00,,,0.00,,2013-02-16 07:01:00,
2013-02-15 23:11:00,48.0,44.0,30.23,SE,131,0.0,1.0,86,0.00,,,0.00,,2013-02-16 07:11:00,
2013-02-15 23:21:00,47.0,43.0,30.24,SE,131,0.0,0.0,86,0.00,,,0.00,,2013-02-16 07:21:00,
2013-02-15 23:31:00,47.0,43.0,30.24,SE,131,0.0,1.0,86,0.00,,,0.00,,2013-02-16 07:31:00,
2013-02-15 23:41:00,47.0,43.0,30.24,SE,131,0.0,1.0,86,0.00,,,0.00,,2013-02-16 07:41:00,
2013-02-15 23:52:00,47.0,43.0,30.24,SE,131,0.0,0.0,86,0.00,,,0.00,,2013-02-16 07:52:00,